This demonstration page uses our WeatherBlox Daily Observations layout. Learn more.

Left ArrowRight Arrow

44.8408, -93.29828

Hourly Observations for December 18, 2019

Temp ( °F °C ) Dew Point ( °F °C ) Humidity (%) Winds ( mph kmh ) Pressure ( in mb ) Visibility ( mi km ) Precip ( " mm )
12:53 am 00:53 Clear 1 -17.2 -11 -23.9 56 56 N 10 17 30.34 1028 10 16 0.00 0.00
1:53 am 01:53 Clear 0 -17.8 -12 -24.4 57 57 N 6 9 30.35 1028 10 16 0.00 0.00
2:53 am 02:53 Clear -1 -18.3 -13 -25 56 56 N 7 11 30.36 1028 10 16 0.00 0.00
3:53 am 03:53 Clear -2 -18.9 -13 -25 59 59 NNE 5 7 30.37 1028 10 16 0.00 0.00
4:53 am 04:53 Clear -2 -18.9 -13 -25 59 59 NE 5 7 30.37 1028 10 16 0.00 0.00
5:53 am 05:53 Mostly Cloudy -2 -18.9 -12 -24.4 62 62 ENE 3 6 30.36 1028 10 16 0.00 0.00
6:53 am 06:53 Mostly Cloudy -1 -18.3 -13 -25 56 56 E 6 9 30.37 1028 10 16 0.00 0.00
7:53 am 07:53 Mostly Cloudy -1 -18.3 -11 -23.9 62 62 SSE 6 9 30.35 1028 10 16 0.00 0.00
8:53 am 08:53 Cloudy -1 -18.3 -12 -24.4 59 59 SE 7 11 30.35 1028 10 16 0.00 0.00
9:53 am 09:53 Cloudy 0 -17.8 -10 -23.3 62 62 SSE 6 9 30.38 1029 10 16 0.00 0.00
10:53 am 10:53 Cloudy 3 -16.1 -9 -22.8 57 57 SSE 8 13 30.37 1029 10 16 0.00 0.00
11:53 am 11:53 Cloudy 5 -15 -8 -22.2 54 54 SSE 7 11 30.35 1028 10 16 0.00 0.00
12:53 pm 12:53 Mostly Cloudy 8 -13.3 -8 -22.2 47 47 SE 9 15 30.31 1026 10 16 0.00 0.00
1:53 pm 13:53 Mostly Cloudy 8 -13.3 -6 -21.1 52 52 ESE 13 20 30.27 1025 10 16 0.00 0.00
2:53 pm 14:53 Mostly Sunny 10 -12.2 -5 -20.6 50 50 SE 13 20 30.24 1024 10 16 0.00 0.00
3:53 pm 15:53 Mostly Sunny 10 -12.2 -4 -20 53 53 SE 13 20 30.23 1024 10 16 0.00 0.00
4:53 pm 16:53 Mostly Clear 10 -12.2 -3 -19.4 55 55 SE 10 17 30.22 1023 10 16 0.00 0.00
5:53 pm 17:53 Mostly Clear 10 -12.2 -3 -19.4 55 55 SSE 8 13 30.20 1023 10 16 0.00 0.00
6:53 pm 18:53 Mostly Clear 9 -12.8 -2 -18.9 61 61 SE 8 13 30.18 1022 10 16 0.00 0.00
7:53 pm 19:53 Mostly Clear 11 -11.7 -1 -18.3 58 58 SSE 7 11 30.15 1021 10 16 0.00 0.00
8:53 pm 20:53 Partly Cloudy 11 -11.7 1 -17.2 64 64 SE 6 9 30.14 1021 10 16 0.00 0.00
9:53 pm 21:53 Partly Cloudy 11 -11.7 2 -16.7 67 67 SE 7 11 30.11 1020 10 16 0.00 0.00
10:53 pm 22:53 Partly Cloudy 12 -11.1 3 -16.1 67 67 SE 7 11 30.09 1019 10 16 0.00 0.00
11:53 pm 23:53 Partly Cloudy 15 -9.4 6 -14.4 67 67 SE 6 9 30.08 1019 10 16 0.00 0.00

Powered by AerisWeather